Regional Weather Roundup
Issued by NWS Boston, MA

Home | Current Version | Previous Version | Text Only | Print | Product List | Glossary On
Versions: 1 2 3 4 5 6 7 8 9 10 11 12 13 14 15 16 17 18 19 20 21 22 23 24 25 26 27 28 29 30 31 32 33 34 35 36 37 38 39 40 41 42 43 44 45 46 47 48 49 50
645
ASUS41 KBOX 221310
RWRBOX

REGIONAL WEATHER ROUNDUP
NATIONAL WEATHER SERVICE TAUNTON MA
800 AM EST WED FEB 22 2017

NOTE:  "FAIR" INDICATES FEW OR NO CLOUDS BELOW 12,000 FEET WITH NO
SIGNIFICANT WEATHER AND/OR OBSTRUCTIONS TO VISIBILITY.

MAZALL-221400-
EASTERN MASSACHUSETTS

CITY           SKY/WX    TMP DP  RH WIND       PRES   REMARKS
BOSTON         CLOUDY    41  34  76 SW12      30.04R
BEVERLY        CLOUDY    40  33  76 W7        30.02R
LAWRENCE       CLOUDY    39  33  79 SW6       30.03R
BEDFORD        CLOUDY    39  31  72 SW3       30.02R
BLUE HILL        N/A     37  32  82 SW12      30.00  WCI  29
NORWOOD        CLOUDY    41  34  76 SW6       30.03R
MARSHFIELD     CLOUDY    43  36  75 SW9G16    30.02S
PLYMOUTH       PTSUNNY   41  36  82 SW7       30.04S
TAUNTON        CLOUDY    42  36  79 SW9       30.03S
NEW BEDFORD    CLOUDY    44  37  76 SW10      30.04S
$$

MAZALL-221400-
CAPE COD AND THE ISLANDS

CITY           SKY/WX    TMP DP  RH WIND       PRES   REMARKS
FALMOUTH       CLOUDY    43  37  81 MISG      30.05S
HYANNIS        CLOUDY    41  37  86 SW8       30.03F
CHATHAM        CLOUDY    40  38  93 SW9       30.06S
PROVINCETOWN   CLOUDY    40  37  89 S12       30.04F
NANTUCKET      CLOUDY    41  37  86 S10       30.07S
MARTHAS VNYRD  CLOUDY    42  39  89 SW8       30.05F
$$

MAZALL-221400-
CENTRAL AND WESTERN MASSACHUSETTS

CITY           SKY/WX    TMP DP  RH WIND       PRES   REMARKS
WORCESTER      FAIR      35  30  82 W14       30.00R WCI  26
FITCHBURG      FAIR      39  32  76 NW5       30.02R
ORANGE         FAIR      31  31 100 CALM      30.03R
SPRINGFIELD    CLOUDY    34  32  92 CALM      30.03R
WESTFIELD      CLOUDY    33  32  96 CALM      30.04R
NORTH ADAMS    CLOUDY    35  29  78 E5        30.02R WCI  31
PITTSFIELD     CLOUDY    34  29  82 CALM      30.00R
$$

RIZALL-221400-
RHODE ISLAND

CITY           SKY/WX    TMP DP  RH WIND       PRES   REMARKS
PROVIDENCE     PTSUNNY   41  35  79 SW8       30.05S
NEWPORT        CLOUDY    42  39  89 VRB5      30.04F
BLOCK ISLAND   CLOUDY    43  40  89 SW14      30.06F
SMITHFIELD     PTSUNNY   39  34  82 SW5       30.03R
WESTERLY       CLOUDY    43  37  79 SW7       30.06F
$$

CTZALL-221400-
CONNECTICUT

CITY           SKY/WX    TMP DP  RH WIND       PRES   REMARKS
BRADLEY INTL   CLOUDY    39  34  82 CALM      30.05R
HARTFORD       PTSUNNY   39  35  86 CALM      30.05R
BRIDGEPORT     CLOUDY    42  36  79 SW6       30.05F
DANBURY        PTSUNNY   40  33  76 CALM      30.04S
GROTON         FAIR      41  38  89 SW7       30.05S
NEW HAVEN      CLOUDY    40  37  89 SW3       30.05S
CHESTER        FAIR      41  37  87 VRB3      30.03F
MERIDEN        FAIR      41  35  79 CALM      30.05S
WILLIMANTIC    FAIR      38  33  82 CALM      30.05S
OXFORD         PTSUNNY   37  30  75 W5        30.04S
$$

MEZ002-015-021-024-NHZ003-005-008-011-012-014-VTZ005-008-221400-
NORTHERN NEW ENGLAND

CITY           SKY/WX    TMP DP  RH WIND       PRES   REMARKS
PORTLAND ME    FAIR      34  28  79 CALM      30.01R
BANGOR ME      PTSUNNY   33  29  85 CALM      29.99F
CONCORD NH     CLOUDY    34  29  82 CALM      30.01R
MANCHESTER NH  PTSUNNY   37  30  75 SW5       30.01R
NASHUA NH      FAIR      37  32  82 CALM      30.03R
PORTSMOUTH NH  PTSUNNY   35  30  82 CALM      30.01R
JAFFREY NH     FAIR      34  31  88 S7        30.01R WCI  28
KEENE NH       FAIR      33  31  92 CALM      30.03R
BURLINGTON VT  PTSUNNY   41  29  62 S9        29.98S
MT. WASHINGTON PTSUNNY   32  19  59 NW36        N/A  WCI  16
$$

NYZ052-076-221400-
EASTERN NEW YORK

CITY           SKY/WX    TMP DP  RH WIND       PRES   REMARKS
ALBANY         CLOUDY    41  30  65 S8        30.03S
NEW YORK CITY  CLOUDY    46  35  65 SW8       30.05S
$$

ANZALL-221400-
MARINE OBSERVATIONS

STATION/POSITION TIME  TEMP    WIND        PRES    VSBY  WAVE
                       AIR SEA DIR/SP/G                  HT/PER
                 (UTC) (F)     (DEG/KT/KT) (MB)    (MI)  (FT/S)
BOSTON BUOY      1150   41 42  230/  8/ 10 1015.9          2/ 8
BUZZARDS BAY     1200   41     220/ 12/ 12 1018.3R
NANTUCKET SOUND  1150   40 39  190/ 10/ 12 1017.9          1/ 8
MASS BAY-STELLWA 1204   41 41  240/ 12/ 14 1015.1F   3/4   4/ 8
ISLE OF SHOALS   1200   38     230/  9/  9 1015.8F
S OF BLOCK IS    1255      42                N/A           2/ 9
$$

......................KEY.........................
  SKY/WX - SKY CONDITION/PRESENT WEATHER
  TMP    - TEMPERATURE IN FAHRENHEIT
  DWPT   - DEWPOINT IN FAHRENHEIT
  RH     - RELATIVE HUMIDITY IN PERCENT
  WIND   - DIRECTION AND SPEED IN MPH
  PRES   - MEAN SEA LEVEL PRESSURE IN INCHES OF HG
  WCI    - WIND CHILL INDEX
  VSB    - VISIBILITY IN MILES
  HX     - HEAT INDEX
  TC     - TEMPERATURE IN CELSIUS
  VRB    - VARIABLE WIND DIRECTION
  N/A    - NOT AVAILABLE




USA.gov is the U.S. government's official web portal to all federal, state and local government web resources and services.